FW3611 Weather Reports


Display with metric or nautical units.
time (UTC)temp
F
wind
direction
speed
MPH
gust
MPH
rain 1hr
in
rain 24hr
in
rain mn
in
humidity
%
barometer
mb
20260503032702 55 31 0.0 0.0 0.00 1.66 1.66 94 1015.9
20260503031701 55 31 0.0 0.0 0.00 1.66 1.66 94 1015.8
20260503031201 55 31 0.0 0.0 0.00 1.66 1.66 94 1015.7
20260503030702 55 31 0.0 0.0 0.00 1.66 1.66 94 1015.7
20260503030201 55 31 0.0 0.0 0.00 1.66 1.66 94 1015.5
20260503025206 55 31 0.0 0.0 0.00 1.66 1.66 94 1015.4
20260503024715 56 31 0.0 0.0 0.00 1.66 1.66 94 1015.4
20260503024222 56 31 0.0 0.0 0.00 1.66 1.66 94 1015.3
20260503023208 56 31 0.0 0.0 0.00 1.66 1.66 94 1015.3
20260503022720 56 31 0.0 0.0 0.00 1.66 1.66 94 1015.2
20260503022201 56 31 0.0 0.0 0.00 1.66 1.66 94 1015.2
20260503021201 57 31 0.0 0.0 0.00 1.67 1.66 94 1015.1
20260503020656 57 31 0.0 0.0 0.00 1.67 1.66 94 1015.1
20260503020156 57 31 0.0 0.0 0.00 1.67 1.66 94 1015.0
20260503015654 57 31 0.0 0.0 0.00 1.67 1.66 93 1014.9
20260503015154 57 31 0.0 0.0 0.00 1.67 1.66 93 1014.8
20260503014655 57 31 0.0 0.0 0.00 1.67 1.66 94 1014.7
20260503013656 58 31 0.0 0.0 0.00 1.67 1.66 93 1014.6
20260503012158 58 31 0.0 0.0 0.00 1.67 1.66 93 1014.3
20260503011156 58 31 0.0 0.0 0.00 1.67 1.66 93 1014.2
20260503010658 58 31 0.0 0.0 0.00 1.67 1.66 93 1014.2
20260503005656 59 31 0.0 0.0 0.00 1.67 1.66 93 1014.0
20260503005148 59 31 0.0 0.0 0.00 1.67 1.66 92 1014.0
20260503004144 59 31 0.0 0.0 0.00 1.67 1.66 92 1013.8
20260503003640 60 31 0.0 0.0 0.00 1.67 1.66 92 1013.6
20260503003141 60 31 0.0 0.0 0.00 1.67 1.66 92 1013.6
20260503002641 60 31 0.0 0.0 0.00 1.67 1.66 92 1013.5
20260503002138 60 31 0.0 0.0 0.00 1.67 1.66 92 1013.5
20260503001637 60 31 0.0 0.0 0.00 1.67 1.66 91 1013.5
20260503001132 61 31 0.0 0.0 0.00 1.67 1.66 91 1013.4
20260503000635 61 31 0.0 0.0 0.00 1.67 1.66 91 1013.4
20260503000132 61 31 0.0 0.0 0.00 1.67 1.66 91 1013.3
20260502235640 62 31 0.0 0.0 0.00 1.67 1.66 91 1013.2
20260502235132 62 31 0.0 0.0 0.00 1.67 1.66 91 1013.1
20260502234633 62 31 0.0 2.0 0.00 1.67 1.66 91 1013.1
20260502234133 62 31 1.0 2.0 0.00 1.67 1.66 90 1013.0
20260502233131 62 31 1.0 3.0 0.00 1.67 1.66 91 1012.7
20260502232632 62 31 1.0 3.0 0.00 1.67 1.66 91 1012.6
20260502232135 62 30 1.0 3.0 0.00 1.67 1.66 91 1012.6
20260502231634 62 30 2.0 5.0 0.00 1.67 1.66 91 1012.5
20260502230633 62 346 3.0 6.0 0.00 1.67 1.66 91 1012.5
20260502230132 62 346 3.0 6.0 0.00 1.67 1.66 92 1012.5
20260502225633 62 341 3.0 6.0 0.00 1.67 1.66 92 1012.5
20260502225131 62 356 2.0 5.0 0.00 1.67 1.66 93 1012.5
20260502224633 62 7 2.0 5.0 0.00 1.67 1.66 94 1012.6
20260502224133 61 41 2.0 4.0 0.00 1.67 1.66 93 1012.5
20260502223635 61 41 2.0 4.0 0.00 1.67 1.66 94 1012.5
20260502223129 61 43 2.0 3.0 0.00 1.67 1.66 93 1012.5
20260502222631 61 43 2.0 4.0 0.00 1.67 1.66 94 1012.5
20260502222131 61 43 2.0 5.0 0.00 1.67 1.66 94 1012.5
20260502221633 61 351 2.0 5.0 0.00 1.67 1.66 94 1012.6
20260502221135 61 46 2.0 4.0 0.00 1.67 1.66 94 1012.6
20260502220631 61 46 2.0 6.0 0.00 1.67 1.66 94 1012.6
20260502220133 61 52 2.0 6.0 0.00 1.67 1.66 94 1012.4
20260502215631 61 24 3.0 9.0 0.00 1.67 1.66 94 1012.4
20260502215130 61 30 4.0 9.0 0.00 1.67 1.66 94 1012.2
20260502214629 60 0 4.0 10.0 0.00 1.67 1.66 94 1012.1
20260502214125 61 55 4.0 10.0 0.00 1.67 1.66 94 1012.0
20260502212609 60 315 4.0 11.0 0.00 1.67 1.66 93 1012.0
20260502211612 60 0 5.0 11.0 0.01 1.67 1.66 93 1012.0
20260502210607 61 21 5.0 14.0 0.01 1.67 1.66 93 1011.8
20260502210108 61 19 5.0 10.0 0.01 1.67 1.66 94 1011.7
20260502205607 61 346 6.0 11.0 0.01 1.66 1.66 94 1011.7
20260502205106 61 339 5.0 11.0 0.01 1.66 1.66 94 1011.7
20260502204605 61 0 5.0 12.0 0.01 1.66 1.66 94 1011.7
20260502203601 61 356 6.0 13.0 0.01 1.66 1.66 94 1011.7
20260502203101 61 322 6.0 12.0 0.01 1.66 1.66 94 1011.7
20260502202601 61 346 5.0 11.0 0.01 1.66 1.66 94 1011.8
20260502201551 60 356 6.0 13.0 0.00 1.66 1.65 93 1011.8
20260502201051 60 320 7.0 13.0 0.00 1.66 1.65 93 1011.9
20260502200550 60 333 7.0 13.0 0.00 1.66 1.65 93 1011.9
20260502200049 61 18 6.0 12.0 0.00 1.66 1.65 93 1011.8
20260502195100 60 341 5.0 9.0 0.00 1.67 1.65 93 1011.7
20260502194050 60 323 7.0 14.0 0.00 1.67 1.65 93 1011.8
20260502193549 60 4 8.0 14.0 0.00 1.67 1.65 93 1011.6
20260502193050 60 318 6.0 13.0 0.00 1.67 1.65 94 1011.4
20260502192604 60 314 5.0 13.0 0.00 1.67 1.65 94 1011.5
20260502192049 60 351 5.0 10.0 0.00 1.67 1.65 94 1011.5
20260502191551 60 342 5.0 12.0 0.00 1.67 1.65 94 1011.4
20260502191045 60 295 5.0 12.0 0.00 1.67 1.65 95 1011.4
20260502190542 60 334 4.0 9.0 0.00 1.67 1.65 95 1011.3
20260502190045 60 329 4.0 9.0 0.00 1.67 1.65 94 1011.5
20260502185039 60 323 5.0 10.0 0.01 1.67 1.65 95 1011.8
20260502184540 60 342 5.0 10.0 0.02 1.67 1.65 95 1011.8
20260502183538 60 316 5.0 12.0 0.02 1.67 1.65 95 1011.7
20260502182539 60 317 4.0 10.0 0.02 1.67 1.65 95 1011.8
20260502181542 60 342 5.0 9.0 0.02 1.67 1.65 95 1011.7
20260502181039 60 330 5.0 10.0 0.02 1.67 1.65 95 1011.7
20260502170519 59 11 4.0 9.0 0.00 1.64 1.62 96 1011.9
20260502163009 59 351 5.0 12.0 0.00 1.64 1.62 96 1011.3
20260502162510 59 11 5.0 12.0 0.01 1.64 1.62 96 1011.0
20260502162009 59 8 4.0 9.0 0.01 1.64 1.62 96 1011.1
20260502161509 59 16 4.0 10.0 0.03 1.64 1.62 96 1011.4
20260502161026 59 351 5.0 9.0 0.05 1.64 1.62 96 1011.2
20260502160515 59 351 4.0 9.0 0.05 1.64 1.62 96 1011.1
20260502152014 58 304 3.0 8.0 0.07 1.58 1.61 96 1012.4
20260502151505 58 322 4.0 8.0 0.05 1.58 1.59 96 1012.3
20260502151005 58 297 4.0 8.0 0.03 1.59 1.57 96 1012.4
20260502150511 58 346 3.0 6.0 0.04 1.59 1.57 96 1011.7
20260502130456 58 27 4.0 10.0 0.11 1.46 1.43 96 1011.8
20260502123450 58 339 2.0 7.0 0.12 1.35 1.37 95 1012.1
20260502122951 58 328 3.0 7.0 0.12 1.35 1.36 95 1012.1
20260502122451 59 317 3.0 5.0 0.12 1.35 1.35 95 1012.3
20260502121952 59 307 1.0 4.0 0.11 1.35 1.33 96 1012.1
20260502120952 59 319 2.0 3.0 0.14 1.35 1.32 95 1011.6
20260502120452 59 319 2.0 3.0 0.17 1.35 1.32 95 1011.5
20260502115456 59 319 1.0 4.0 0.22 1.15 1.30 95 1011.3
20260502114952 59 319 1.0 3.0 0.24 1.15 1.29 95 1011.3
20260502114453 59 319 1.0 3.0 0.26 1.15 1.29 95 1011.3
20260502113951 59 319 1.0 2.0 0.28 1.15 1.28 95 1011.1
20260502113445 59 319 0.0 2.0 0.29 1.15 1.26 95 1011.1
20260502112439 59 319 1.0 2.0 0.30 1.26 1.23 95 1011.1
20260502111936 59 319 1.0 3.0 0.32 1.25 1.21 95 1011.2
20260502111443 59 319 2.0 4.0 0.33 1.22 1.19 95 1011.3
20260502110940 59 320 2.0 4.0 0.34 1.21 1.17 95 1011.4
20260502105937 59 338 2.0 4.0 0.38 1.15 1.11 95 1011.3
20260502105434 59 338 1.0 4.0 0.36 1.12 1.08 95 1011.2
20260502104433 59 339 0.0 2.0 0.33 1.05 1.02 95 1011.0
20260502103431 59 339 1.0 3.0 0.31 1.00 0.97 95 1010.9
20260502102934 59 337 2.0 5.0 0.30 0.98 0.94 95 1010.9
20260502102433 58 337 3.0 6.0 0.28 0.95 0.92 95 1010.9
20260502091428 58 0 4.0 10.0 0.25 0.66 0.63 95 1010.1
20260502090926 58 10 4.0 10.0 0.27 0.65 0.62 95 1009.9
20260502090427 58 4 5.0 10.0 0.29 0.64 0.60 95 1010.5
20260502071401 60 7 3.0 5.0 0.09 0.21 0.17 94 1011.8
20260502070902 60 6 3.0 6.0 0.08 0.20 0.17 93 1012.0
20260502070401 60 10 3.0 8.0 0.08 0.19 0.16 93 1012.1
20260502065905 60 302 5.0 9.0 0.07 0.18 0.15 93 1012.6
20260502064904 60 339 4.0 11.0 0.08 0.15 0.12 93 1012.3
20260502064404 60 295 6.0 16.0 0.06 0.13 0.09 93 1012.7
20260502063901 61 297 5.0 16.0 0.05 0.12 0.09 93 1012.4
20260502063401 61 285 4.0 11.0 0.05 0.12 0.09 93 1012.4
20260502062900 61 346 3.0 8.0 0.05 0.12 0.09 93 1012.5
20260502062358 61 315 3.0 6.0 0.05 0.12 0.09 93 1012.4
20260502061858 61 351 3.0 7.0 0.06 0.12 0.09 93 1012.4
20260502061400 61 341 3.0 7.0 0.07 0.12 0.09 93 1012.5
20260502060856 61 329 3.0 5.0 0.08 0.12 0.08 93 1012.8
20260502060356 61 1 3.0 5.0 0.07 0.11 0.08 92 1013.0
20260502055854 61 268 3.0 4.0 0.07 0.11 0.07 92 1013.2
20260502055354 61 268 3.0 4.0 0.06 0.09 0.06 92 1013.3
20260502054854 61 304 2.0 6.0 0.04 0.07 0.04 92 1012.9
20260502054355 61 304 3.0 8.0 0.04 0.07 0.04 92 1012.6
20260502053855 61 341 3.0 8.0 0.04 0.07 0.04 91 1012.5
20260502053355 61 333 3.0 6.0 0.04 0.07 0.04 91 1012.5
20260502052854 61 342 3.0 6.0 0.04 0.07 0.04 91 1012.5
20260502052353 62 356 3.0 6.0 0.04 0.07 0.04 90 1012.5
20260502051854 62 312 3.0 7.0 0.03 0.06 0.03 90 1012.7
20260502051351 62 286 3.0 7.0 0.02 0.05 0.02 90 1013.0
20260502045850 62 308 4.0 8.0 0.01 0.04 0.01 89 1012.8
20260502045353 62 310 4.0 8.0 0.00 0.03 0.00 89 1012.7
20260502044851 62 295 3.0 8.0 0.00 0.03 0.00 90 1012.8
20260502044348 62 308 2.0 5.0 0.00 0.03 0.00 90 1012.6
20260502043848 62 305 2.0 5.0 0.00 0.03 0.00 90 1012.7
20260502043346 62 296 2.0 4.0 0.00 0.03 0.00 90 1012.9
20260502042848 62 296 2.0 4.0 0.00 0.03 0.00 90 1012.8
20260502042348 62 320 2.0 4.0 0.00 0.03 0.00 90 1012.7
20260502041844 62 322 2.0 4.0 0.00 0.03 0.00 90 1012.5
20260502041344 62 305 1.0 3.0 0.00 0.03 0.00 91 1012.5
20260502040844 62 305 1.0 3.0 0.00 0.03 0.00 91 1012.7
20260502035842 62 305 0.0 2.0 0.00 0.03 0.03 91 1013.0
20260502035340 62 305 1.0 2.0 0.00 0.03 0.03 91 1013.0
20260502034338 62 305 0.0 2.0 0.00 0.03 0.03 90 1012.7
20260502033837 62 305 0.0 2.0 0.00 0.03 0.03 90 1012.6
20260502033337 62 305 0.0 2.0 0.00 0.03 0.03 90 1012.5